Monroe, LA

4:58 PM CDT on June 24, 2017 (GMT -0500)
Monroe Regional

Weather History for KMLU - September, 2014

Change the Weather History Date:

Thursday, September 18, 2014

  Actual Average Record
Temperature  
Mean Temperature 80 °F 76 °F  
Max Temperature 89 °F 88 °F 102 °F (2010)
Min Temperature 70 °F 64 °F 51 °F (1934)
Degree Days  
Heating Degree Days 0 0  
Month to date heating degree days 0 0  
Since 1 July heating degree days 0 0  
Cooling Degree Days 15 11  
Month to date cooling degree days 264 249  
Year to date cooling degree days 2015 2256  
Growing Degree Days 29 (Base 50)    
Moisture  
Dew Point 72 °F    
Average Humidity 80    
Maximum Humidity 100    
Minimum Humidity 59    
Precipitation  
Precipitation 0.00 in 0.10 in 2.05 in (1966)
Month to date precipitation 1.25 2.18  
Year to date precipitation 40.48 37.66  
Snow  
Snow 0.00 in - - ()
Month to date snowfall 0.0  
Since 1 July snowfall 0.0  
Since 1 September snowfall 0.0  
Snow Depth 0.00 in    
Sea Level Pressure  
Sea Level Pressure 29.92 in    
Wind  
Wind Speed 1 mph (NW)    
Max Wind Speed 12 mph    
Max Gust Speed 14 mph    
Visibility 8 miles    
Events Thunderstorm    
T = Trace of Precipitation, MM = Missing Value Source: NWS Daily Summary

Daily Weather History Graph

Daily Weather History Graph

Search for Another Location

Airport or City:

Trip Planner

Search our weather history database for the weather conditions in past years. The results will help you decide how hot, cold, wet, or windy it might be!

Date:

Astronomy

Sep. 18, 2014 Rise Set
Actual Time 6:53 AM CDT 7:10 PM CDT
Civil Twilight 6:29 AM CDT 7:34 PM CDT
Nautical Twilight 6:00 AM CDT 8:03 PM CDT
Astronomical Twilight 5:31 AM CDT 8:32 PM CDT
Moon 1:59 AM CDT (9/18) 3:49 PM CDT (9/18)
Length of Visible Light 13h 05m
Length of Day
12h 16m
Waning Crescent, 26% of the Moon is Illuminated
Sep 18
Waning Crescent
Sep 24
New
Oct 1
First Quarter
Oct 8
Full
Oct 15
Last Quarter

Hourly Weather History & Observations

Time (CDT) Temp. Heat Index Dew Point Humidity Pressure Visibility Wind Dir Wind Speed Gust Speed Precip Events Conditions
12:53 AM 72.0 °F - 70.0 °F 93% 29.91 in 8.0 mi Calm Calm - N/A   Clear
1:53 AM 73.0 °F - 71.1 °F 93% 29.90 in 7.0 mi Calm Calm - N/A   Clear
2:53 AM 72.0 °F - 71.1 °F 97% 29.90 in 7.0 mi Calm Calm - N/A   Clear
3:53 AM 73.4 °F - 71.6 °F 94% 29.90 in 10.0 mi Calm Calm - N/A   Clear
4:53 AM 73.0 °F - 71.1 °F 93% 29.89 in 10.0 mi Calm Calm - N/A   Clear
5:53 AM 72.0 °F - 70.0 °F 93% 29.91 in 4.0 mi Calm Calm - N/A   Clear
6:53 AM 71.1 °F - 70.0 °F 96% 29.92 in 10.0 mi Calm Calm - N/A   Clear
7:53 AM 73.9 °F - 72.0 °F 93% 29.94 in 6.0 mi Calm Calm - N/A   Haze
8:53 AM 75.9 °F - 73.9 °F 94% 29.94 in 8.0 mi Calm Calm - N/A   Haze
9:53 AM 81.0 °F 85.8 °F 73.0 °F 77% 29.94 in 10.0 mi Calm Calm - N/A   Haze
10:53 AM 82.9 °F 88.8 °F 73.0 °F 72% 29.95 in 6.0 mi Calm Calm - N/A   Haze
11:53 AM 84.9 °F 91.4 °F 73.0 °F 67% 29.93 in 10.0 mi Calm Calm - N/A   Haze
12:53 PM 86.0 °F 92.2 °F 72.0 °F 63% 29.93 in 6.0 mi WSW 3.5 mph - N/A   Haze
1:00 PM 87.8 °F 93.8 °F 71.6 °F 58% 29.93 in 10.0 mi Calm Calm - N/A   Haze
1:53 PM 87.1 °F 93.6 °F 72.0 °F 61% 29.91 in 10.0 mi Calm Calm - N/A   Scattered Clouds
2:53 PM 84.9 °F 91.4 °F 73.0 °F 67% 29.89 in 10.0 mi SW 8.1 mph - N/A   Mostly Cloudy
3:25 PM 84.2 °F 90.9 °F 73.4 °F 70% 29.89 in 10.0 mi WNW 8.1 mph - N/A Thunderstorm Mostly Cloudy
3:44 PM 84.2 °F 89.6 °F 71.6 °F 66% 29.88 in 10.0 mi WNW 8.1 mph - N/A   Partly Cloudy
3:53 PM 84.0 °F 90.2 °F 73.0 °F 69% 29.87 in 10.0 mi WNW 3.5 mph - N/A   Partly Cloudy
4:53 PM 82.9 °F 87.5 °F 71.1 °F 67% 29.87 in 10.0 mi Calm Calm - N/A   Mostly Cloudy
5:53 PM 82.0 °F 87.9 °F 73.9 °F 76% 29.87 in 10.0 mi SW 5.8 mph - N/A   Scattered Clouds
6:53 PM 81.0 °F 86.7 °F 75.0 °F 82% 29.89 in 10.0 mi Calm Calm - N/A   Clear
7:53 PM 77.0 °F - 73.9 °F 90% 29.90 in 10.0 mi Calm Calm - N/A   Clear
8:53 PM 75.9 °F - 73.9 °F 94% 29.92 in 8.0 mi Calm Calm - N/A   Clear
9:53 PM 73.9 °F - 72.0 °F 93% 29.94 in 6.0 mi Calm Calm - N/A   Clear
10:29 PM 73.4 °F - 71.6 °F 94% 29.94 in 1.8 mi NE 3.5 mph - N/A   Clear
10:35 PM 73.4 °F - 71.6 °F 94% 29.95 in 0.8 mi NE 4.6 mph - N/A   Partly Cloudy
10:48 PM 73.4 °F - 71.6 °F 94% 29.95 in 2.5 mi Calm Calm - N/A   Partly Cloudy
10:49 PM 73.4 °F - 71.6 °F 94% 29.95 in 3.0 mi ENE 3.5 mph - N/A   Partly Cloudy
10:53 PM 73.9 °F - 72.0 °F 93% 29.94 in 5.0 mi ENE 4.6 mph - N/A   Partly Cloudy
11:53 PM 75.0 °F - 72.0 °F 90% 29.95 in 10.0 mi Calm Calm - N/A   Clear